Lambertville, MI

12:14 PM EDT on July 27, 2017 (GMT -0400)
Lambertville

Weather History for KDUH - April, 2014

Change the Weather History Date:

Thursday, April 10, 2014

  Actual Average (KTOL) Record (KTOL)
Temperature  
Mean Temperature 58 °F -  
Max Temperature 71 °F 53 °F 84 °F (2011)
Min Temperature 46 °F 31 °F 18 °F (1989)
Degree Days  
Heating Degree Days 6    
Growing Degree Days 8 (Base 50)    
Moisture  
Dew Point 39 °F    
Average Humidity 54    
Maximum Humidity 88    
Minimum Humidity 29    
Precipitation  
Precipitation 0.00 in - - ()
Sea Level Pressure  
Sea Level Pressure 29.84 in    
Wind  
Wind Speed 10 mph (SW)    
Max Wind Speed 23 mph    
Max Gust Speed 48 mph    
Visibility 10 miles    
Events Rain    
Averages and records for this station are not official NWS values.
T = Trace of Precipitation, MM = Missing Value Source: NWS Daily Summary

Daily Weather History Graph

Daily Weather History Graph

Search for Another Location

Airport or City:

Trip Planner

Search our weather history database for the weather conditions in past years. The results will help you decide how hot, cold, wet, or windy it might be!

Date:

Astronomy

Apr. 10, 2014 Rise Set
Actual Time 7:02 AM EDT 8:09 PM EDT
Civil Twilight 6:34 AM EDT 8:38 PM EDT
Nautical Twilight 5:59 AM EDT 9:12 PM EDT
Astronomical Twilight 5:24 AM EDT 9:48 PM EDT
Moon 3:49 PM EDT (4/10) 4:28 AM EDT (4/10)
Length of Visible Light 14h 04m
Length of Day
13h 07m
Waxing Gibbous, 79% of the Moon is Illuminated
Apr 10
Waxing Gibbous
Apr 15
Full
Apr 22
Last Quarter
Apr 29
New
May 6
First Quarter

Hourly Weather History & Observations

Time (EDT) Temp. Windchill Dew Point Humidity Pressure Visibility Wind Dir Wind Speed Gust Speed Precip Events Conditions
12:15 AM 50.0 °F - 35.6 °F 58% 29.95 in 10.0 mi SSW 6.9 mph - N/A   Clear
12:35 AM 48.2 °F - 35.6 °F 62% 29.95 in 10.0 mi SSW 5.8 mph - N/A   Clear
12:55 AM 48.2 °F - 35.6 °F 62% 29.95 in 10.0 mi SSW 5.8 mph - N/A   Clear
1:15 AM 48.2 °F - 35.6 °F 62% 29.95 in 10.0 mi SSW 6.9 mph - N/A   Clear
1:35 AM 48.2 °F - 35.6 °F 62% 29.94 in 10.0 mi SSW 5.8 mph - N/A   Clear
1:55 AM 46.4 °F 44.3 °F 35.6 °F 66% 29.94 in 10.0 mi SSW 4.6 mph - N/A   Clear
2:15 AM 46.4 °F 43.5 °F 35.6 °F 66% 29.94 in 10.0 mi SSW 5.8 mph - N/A   Scattered Clouds
2:35 AM 48.2 °F - 35.6 °F 62% 29.94 in 10.0 mi SSW 6.9 mph - N/A   Clear
2:55 AM 50.0 °F - 33.8 °F 54% 29.93 in 10.0 mi SW 6.9 mph - N/A   Clear
3:15 AM 50.0 °F - 33.8 °F 54% 29.93 in 10.0 mi SSW 5.8 mph - N/A   Scattered Clouds
3:35 AM 50.0 °F - 35.6 °F 58% 29.93 in 10.0 mi SSW 8.1 mph - N/A   Scattered Clouds
3:55 AM 48.2 °F - 35.6 °F 62% 29.92 in 10.0 mi SSW 8.1 mph - N/A   Scattered Clouds
4:15 AM 48.2 °F - 35.6 °F 62% 29.91 in 10.0 mi SSW 5.8 mph - N/A   Clear
4:35 AM 46.4 °F 42.9 °F 35.6 °F 66% 29.91 in 10.0 mi South 6.9 mph - N/A   Clear
4:55 AM 46.4 °F 42.4 °F 35.6 °F 66% 29.91 in 10.0 mi SSW 8.1 mph - N/A   Clear
5:15 AM 46.4 °F 42.4 °F 35.6 °F 66% 29.90 in 10.0 mi SSW 8.1 mph - N/A   Clear
5:35 AM 46.4 °F 42.9 °F 35.6 °F 66% 29.90 in 10.0 mi South 6.9 mph - N/A   Clear
5:55 AM 46.4 °F 41.5 °F 35.6 °F 66% 29.89 in 10.0 mi SSW 10.4 mph - N/A   Clear
6:15 AM 48.2 °F - 33.8 °F 58% 29.89 in 10.0 mi South 11.5 mph 16.1 mph N/A   Clear
6:35 AM 46.4 °F 41.5 °F 35.6 °F 66% 29.88 in 10.0 mi SSW 10.4 mph 18.4 mph N/A   Clear
6:55 AM 46.4 °F 41.5 °F 35.6 °F 66% 29.88 in 10.0 mi SSW 10.4 mph 16.1 mph N/A   Clear
7:15 AM 46.4 °F 41.5 °F 33.8 °F 62% 29.88 in 10.0 mi SSW 10.4 mph 20.7 mph N/A   Clear
7:35 AM 48.2 °F - 33.8 °F 58% 29.88 in 10.0 mi SSW 13.8 mph 18.4 mph N/A   Clear
7:55 AM 50.0 °F - 33.8 °F 54% 29.88 in 10.0 mi SSW 10.4 mph 17.3 mph N/A   Clear
8:15 AM 50.0 °F - 35.6 °F 58% 29.88 in 10.0 mi SSW 12.7 mph 17.3 mph N/A   Clear
8:35 AM 51.8 °F - 35.6 °F 54% 29.87 in 10.0 mi SSW 13.8 mph 19.6 mph N/A   Clear
8:55 AM 51.8 °F - 35.6 °F 54% 29.87 in 10.0 mi SSW 13.8 mph 20.7 mph N/A   Clear
9:15 AM 53.6 °F - 35.6 °F 51% 29.86 in 10.0 mi SSW 11.5 mph - N/A   Clear
9:35 AM 55.4 °F - 35.6 °F 47% 29.86 in 10.0 mi SSW 12.7 mph 23.0 mph N/A   Clear
9:55 AM 55.4 °F - 35.6 °F 47% 29.84 in 10.0 mi South 15.0 mph 21.9 mph N/A   Clear
10:15 AM 59.0 °F - 35.6 °F 42% 29.83 in 10.0 mi SSW 17.3 mph 29.9 mph N/A   Clear
10:35 AM 59.0 °F - 35.6 °F 42% 29.83 in 10.0 mi South 20.7 mph 28.8 mph N/A   Clear
10:55 AM 60.8 °F - 35.6 °F 39% 29.83 in 10.0 mi SW 18.4 mph 25.3 mph N/A   Clear
11:15 AM 60.8 °F - 35.6 °F 39% 29.83 in 10.0 mi SSW 17.3 mph 28.8 mph N/A   Clear
11:35 AM 62.6 °F - 35.6 °F 37% 29.82 in 10.0 mi SSW 15.0 mph 27.6 mph N/A   Scattered Clouds
11:55 AM 62.6 °F - 35.6 °F 37% 29.80 in 10.0 mi SSW 15.0 mph 28.8 mph N/A   Scattered Clouds
12:15 PM 64.4 °F - 37.4 °F 37% 29.79 in 10.0 mi SSW 19.6 mph 26.5 mph N/A   Scattered Clouds
12:35 PM 64.4 °F - 37.4 °F 37% 29.77 in 10.0 mi SSW 19.6 mph 29.9 mph N/A   Clear
12:55 PM 66.2 °F - 37.4 °F 35% 29.75 in 10.0 mi SSW 16.1 mph 26.5 mph N/A   Clear
1:15 PM 68.0 °F - 37.4 °F 33% 29.74 in 10.0 mi SSW 19.6 mph 35.7 mph N/A   Clear
1:35 PM 68.0 °F - 37.4 °F 33% 29.73 in 10.0 mi SSW 21.9 mph 33.4 mph N/A   Clear
1:55 PM 68.0 °F - 37.4 °F 33% 29.73 in 10.0 mi SSW 19.6 mph 35.7 mph N/A   Clear
2:15 PM 69.8 °F - 39.2 °F 33% 29.73 in 10.0 mi SSW 23.0 mph 31.1 mph N/A   Clear
2:35 PM 71.6 °F - 37.4 °F 29% 29.73 in 10.0 mi SW 20.7 mph 31.1 mph N/A   Clear
2:55 PM 71.6 °F - 37.4 °F 29% 29.73 in 10.0 mi SSW 23.0 mph 34.5 mph N/A   Clear
3:15 PM 71.6 °F - 39.2 °F 31% 29.72 in 10.0 mi SW 20.7 mph 48.3 mph N/A   Clear
3:35 PM 69.8 °F - 37.4 °F 31% 29.73 in 10.0 mi WSW 12.7 mph 34.5 mph N/A   Clear
3:55 PM 69.8 °F - 39.2 °F 33% 29.74 in 10.0 mi SW 23.0 mph 34.5 mph N/A   Clear
4:15 PM 68.0 °F - 39.2 °F 35% 29.74 in 10.0 mi WSW 13.8 mph 32.2 mph N/A   Clear
4:35 PM 68.0 °F - 41.0 °F 37% 29.71 in 10.0 mi SSW 16.1 mph 25.3 mph N/A   Scattered Clouds
4:55 PM 69.8 °F - 41.0 °F 35% 29.70 in 10.0 mi SW 10.4 mph 23.0 mph N/A   Scattered Clouds
5:15 PM 69.8 °F - 42.8 °F 38% 29.73 in 10.0 mi West 13.8 mph 28.8 mph N/A   Scattered Clouds
5:35 PM 68.0 °F - 42.8 °F 40% 29.75 in 10.0 mi West 17.3 mph 26.5 mph N/A   Scattered Clouds
5:55 PM 64.4 °F - 42.8 °F 45% 29.75 in 10.0 mi West 15.0 mph 24.2 mph N/A   Mostly Cloudy
6:15 PM 64.4 °F - 42.8 °F 45% 29.76 in 10.0 mi West 16.1 mph 23.0 mph N/A   Overcast
6:35 PM 64.4 °F - 42.8 °F 45% 29.77 in 10.0 mi West 16.1 mph 21.9 mph N/A   Overcast
6:55 PM 64.4 °F - 42.8 °F 45% 29.78 in 10.0 mi West 12.7 mph 21.9 mph N/A   Overcast
7:15 PM 62.6 °F - 42.8 °F 48% 29.78 in 10.0 mi West 9.2 mph 16.1 mph N/A   Overcast
7:35 PM 62.6 °F - 44.6 °F 52% 29.79 in 10.0 mi West 9.2 mph - N/A   Overcast
7:55 PM 62.6 °F - 42.8 °F 48% 29.80 in 10.0 mi West 9.2 mph - N/A   Overcast
8:15 PM 62.6 °F - 44.6 °F 52% 29.82 in 10.0 mi West 8.1 mph 16.1 mph N/A   Overcast
8:35 PM 59.0 °F - 46.4 °F 63% 29.83 in 10.0 mi NW 8.1 mph 16.1 mph N/A Rain Light Rain
8:55 PM 55.4 °F - 48.2 °F 77% 29.85 in 10.0 mi WNW 5.8 mph - N/A Rain Light Rain
9:15 PM 55.4 °F - 50.0 °F 82% 29.86 in 10.0 mi NW 5.8 mph - N/A Rain Light Rain
9:35 PM 53.6 °F - 50.0 °F 88% 29.88 in 10.0 mi WNW 5.8 mph - N/A Rain Light Rain
9:55 PM 53.6 °F - 50.0 °F 88% 29.89 in 10.0 mi West 5.8 mph - N/A Rain Light Rain
10:15 PM 53.6 °F - 48.2 °F 82% 29.90 in 10.0 mi West 6.9 mph - N/A   Overcast
10:35 PM 53.6 °F - 48.2 °F 82% 29.90 in 10.0 mi West 4.6 mph - N/A   Overcast
10:55 PM 53.6 °F - 48.2 °F 82% 29.92 in 10.0 mi West 4.6 mph - N/A   Overcast
11:15 PM 53.6 °F - 48.2 °F 82% 29.92 in 10.0 mi West 5.8 mph - N/A   Overcast
11:35 PM 53.6 °F - 48.2 °F 82% 29.92 in 10.0 mi Calm Calm - N/A   Overcast
11:55 PM 53.6 °F - 46.4 °F 77% 29.92 in 10.0 mi Calm Calm - N/A   Overcast